Location: Lourdes
(43.1000°N, 0.0500°W)
Time: 17:27:36
(UTC+00:00)

Cosmos 1943 - Visible Passes

Search period start: 16 April 2021 00:00
Search period end: 26 April 2021 00:00
Orbit: 835 x 848 km, 71.0° (Epoch: 15 April)

Date Brightness Start Highest point End Pass type
(mag) Time Alt. Az. Time Alt. Az. Time Alt. Az.
16 Apr 5.7 01:14:58 10° NW 01:15:10 11° NW 01:15:10 11° NW visible
16 Apr 5.6 21:34:14 10° NNE 21:35:04 10° NE 21:35:54 10° NE visible
16 Apr 4.5 23:15:01 10° NNW 23:18:33 36° N 23:18:33 36° N visible
17 Apr 5.6 00:59:49 10° NW 01:00:21 12° NW 01:00:21 12° NW visible
17 Apr 4.4 22:59:57 10° NNW 23:03:45 38° NNE 23:03:45 38° NNE visible
18 Apr 5.5 00:44:40 10° NW 00:45:34 14° NW 00:45:34 14° NW visible
18 Apr 4.2 22:44:54 10° NNW 22:48:59 39° NNE 22:48:59 39° NNE visible
19 Apr 5.4 00:29:31 10° NW 00:30:47 15° WNW 00:30:47 15° WNW visible
19 Apr 4.1 22:29:51 10° NNW 22:34:14 41° NNE 22:34:14 41° NNE visible
20 Apr 5.3 00:14:22 10° NW 00:16:02 17° WNW 00:16:02 17° WNW visible
20 Apr 4.0 22:14:49 10° NNW 22:19:30 41° NE 22:19:30 41° NE visible
20 Apr 5.2 23:59:14 10° NW 00:01:18 20° WNW 00:01:18 20° WNW visible
21 Apr 4.0 21:59:46 10° NNW 22:04:48 40° NE 22:04:48 40° NE visible
21 Apr 5.0 23:44:06 10° NW 23:46:36 22° WNW 23:46:36 22° WNW visible
22 Apr 3.9 21:44:44 10° NNW 21:50:00 39° ENE 21:50:07 39° ENE visible
22 Apr 4.9 23:28:59 10° NW 23:31:55 25° WNW 23:31:55 25° WNW visible
23 Apr 4.0 21:29:41 10° N 21:34:54 37° ENE 21:35:27 36° ENE visible
23 Apr 4.7 23:13:52 10° NW 23:17:16 29° WNW 23:17:16 29° WNW visible
24 Apr 4.0 21:14:39 10° N 21:19:49 35° ENE 21:20:49 33° ENE visible
24 Apr 4.5 22:58:45 10° NW 23:02:38 32° W 23:02:38 32° W visible
25 Apr 4.1 20:59:37 10° N 21:04:44 34° NE 21:06:13 29° E visible
25 Apr 4.3 22:43:38 10° NW 22:48:02 36° W 22:48:02 36° W visible
